Wind_Speed
47 46 46 45 45 44 44 43 42 41 40 39 38 37 37 37 36 36 36 35 35 34 34 33 32 31 29 28 27 26 25 25 26 26 26 27 27 27 26 26 25 25 24 23 22 21 20 20 20 20 20 21 21 22 22 22 22 22 22 23 23 23 23 24 24 25 24 24 24
48 48 47 45 45 44 43 43 42 41 40 40 38 38 37 37 36 36 35 35 34 33 32 31 30 29 28 27 25 24 24 25 25 26 27 27 27 27 27 26 26 26 25 24 23 22 21 21 20 21 21 22 22 22 23 23 23 23 23 23 23 23 24 24 25 26 25 25 24
49 48 47 46 45 44 43 43 43 42 41 40 39 38 37 37 36 35 35 34 33 32 31 30 29 28 27 25 24 24 24 24 25 26 27 27 27 27 27 27 26 26 25 24 24 23 22 21 21 21 22 22 23 23 23 23 23 23 24 24 24 24 24 25 26 26 25 25 24
49 48 48 47 47 46 46 45 44 43 42 41 39 38 38 37 36 35 34 33 32 31 30 29 28 27 26 24 24 23 24 24 25 26 27 27 27 27 27 26 26 26 25 24 24 23 22 22 21 22 22 23 23 24 24 24 24 24 24 25 24 24 25 25 26 25 25 24 24
49 49 50 50 50 49 48 47 45 44 43 41 40 39 38 37 36 34 33 32 31 31 30 28 27 26 25 24 24 23 24 24 25 25 26 27 27 27 26 26 26 25 25 24 24 23 22 22 22 22 23 23 24 24 24 24 24 24 25 25 25 25 25 26 26 25 25 24 24
49 50 51 51 50 50 49 47 46 44 43 41 40 38 38 37 36 35 33 32 32 30 29 27 26 25 25 24 24 24 24 24 25 25 26 26 26 26 25 25 25 25 24 24 23 23 22 22 22 23 23 24 24 25 25 25 24 25 25 26 26 25 25 25 26 25 25 25 25
49 49 50 50 50 49 48 47 46 44 43 41 40 39 38 37 36 35 33 32 31 30 28 27 26 26 25 25 24 24 24 24 24 25 25 25 25 25 25 25 24 24 24 24 23 23 23 22 22 23 23 24 25 25 25 25 25 25 26 26 26 26 26 26 26 26 26 26 26
47 48 49 49 49 49 48 47 46 44 43 41 40 39 39 37 36 34 33 32 31 30 29 27 27 26 26 25 25 24 24 24 24 24 24 24 24 24 24 24 24 24 24 23 23 23 22 22 23 23 24 24 25 26 26 25 25 25 26 26 27 27 26 26 26 26 26 26 27
43 45 47 48 49 49 48 47 46 45 43 42 41 40 39 37 35 34 32 32 31 30 29 28 27 26 26 25 24 24 24 23 24 24 24 24 23 24 24 24 24 24 24 23 23 23 22 22 23 23 24 25 25 26 26 25 25 25 26 27 27 27 28 27 27 27 27 27 27
41 43 45 46 47 48 47 47 46 45 44 43 42 40 38 37 35 33 32 31 30 29 28 28 27 26 25 25 24 24 23 23 23 23 23 23 23 23 24 24 24 24 24 23 23 22 22 22 23 24 25 25 26 26 26 25 25 26 26 27 28 28 28 28 28 27 27 27 28
41 42 43 44 46 46 46 45 45 44 43 42 41 40 38 37 35 33 32 30 29 29 28 27 27 26 25 25 24 24 23 23 23 23 23 23 23 24 24 24 24 24 23 23 22 22 22 23 24 24 25 25 26 26 26 26 26 26 27 28 28 28 29 29 29 28 28 28 29
41 41 42 43 44 45 45 44 44 44 43 42 41 40 38 37 35 33 31 30 29 29 28 27 26 25 25 24 24 23 23 23 23 23 22 23 23 24 24 24 24 24 24 23 22 22 22 23 24 25 25 26 26 26 26 26 26 27 27 28 28 29 29 30 29 29 28 28 29
40 40 40 41 42 43 43 44 44 43 43 42 41 40 39 37 35 33 32 30 29 29 28 27 26 25 24 24 24 23 23 23 23 22 23 23 24 24 24 24 24 24 24 23 23 23 23 23 24 25 25 26 26 26 26 26 26 27 28 28 28 29 30 30 30 29 29 29 30
39 39 40 40 41 41 42 43 43 43 42 42 42 41 40 38 36 34 32 31 29 28 28 27 26 25 24 24 24 23 23 23 23 22 23 23 24 24 24 24 24 24 24 23 23 23 23 24 24 25 25 26 26 26 26 26 27 27 28 28 29 29 30 30 30 29 29 30 31
38 39 40 40 40 41 42 42 43 42 42 42 42 41 40 38 37 35 33 31 29 28 28 27 26 25 24 24 23 23 23 23 23 23 23 24 24 25 25 25 24 24 24 24 23 23 23 24 24 24 25 26 26 27 27 27 27 27 28 28 28 29 29 29 29 29 30 30 31
38 39 39 39 40 41 41 42 42 42 42 42 42 41 40 39 37 35 33 31 30 29 28 27 26 25 24 24 24 24 24 23 23 23 24 25 25 25 25 25 25 24 24 24 24 24 24 24 24 24 25 25 26 27 27 27 27 27 27 28 28 28 29 29 29 30 30 30 31
38 38 39 39 40 41 42 42 42 41 41 41 41 41 40 39 38 36 34 32 30 29 28 27 26 25 24 24 24 24 24 24 24 24 25 25 26 25 25 25 25 24 24 24 24 24 24 23 23 24 24 25 26 26 26 26 26 26 27 27 27 28 28 29 29 29 29 29 30
38 38 39 40 41 42 42 42 42 41 41 41 40 40 40 39 38 36 35 33 31 30 28 27 26 25 24 24 25 25 25 25 25 25 26 26 26 25 25 25 24 24 23 23 23 23 23 23 23 23 24 25 25 25 25 25 25 26 26 26 27 27 28 28 27 27 28 28 29
38 38 39 40 41 42 42 42 42 41 40 40 39 39 39 39 38 36 35 33 31 30 28 27 26 24 24 25 25 26 26 26 26 26 26 26 25 25 25 24 24 23 23 23 23 23 23 23 23 23 23 24 24 24 24 24 25 25 25 26 26 26 26 26 26 26 26 28 29
38 39 40 41 41 41 41 41 40 40 39 38 38 37 38 38 37 36 35 33 31 30 28 26 25 24 25 25 26 26 26 26 26 26 26 25 25 25 24 24 23 23 23 23 23 23 23 23 23 23 23 23 23 23 24 24 24 25 25 25 25 25 25 25 25 26 27 28 29
38 39 39 40 40 40 40 39 39 38 37 36 36 36 37 37 37 36 35 33 31 29 27 26 25 25 25 26 26 26 26 26 26 26 26 25 25 25 24 23 23 23 23 23 23 23 23 23 22 22 22 22 23 23 23 23 23 24 24 24 24 24 24 25 26 27 28 29 30
37 37 38 38 38 38 38 37 36 36 35 35 35 35 36 36 36 36 34 32 30 28 27 25 25 25 26 26 27 26 26 26 26 25 25 25 25 24 24 23 23 23 23 23 23 23 22 22 22 22 22 22 23 23 23 22 22 23 23 23 23 24 25 26 27 28 28 29 30
35 35 35 35 36 36 36 35 35 35 34 34 35 35 35 35 35 35 33 32 30 28 26 25 25 25 26 26 26 26 25 25 25 26 26 25 25 24 24 23 23 23 23 23 23 22 22 22 22 22 22 22 22 22 22 21 21 22 23 24 25 26 26 27 27 28 29 29 30
32 33 33 34 34 34 34 34 34 34 34 35 35 35 35 35 35 34 33 31 29 28 26 25 25 26 26 26 26 25 25 25 26 26 26 26 25 25 24 23 23 24 24 23 23 22 22 22 22 22 22 22 22 21 21 21 22 23 24 25 26 27 28 28 28 28 29 29 29
31 32 32 33 33 34 34 34 34 35 35 35 35 35 35 35 35 34 33 31 30 28 27 26 26 26 26 26 26 25 25 26 26 26 27 26 26 25 24 24 24 24 24 23 23 22 21 21 21 21 21 21 21 21 22 22 23 24 25 26 27 28 29 29 29 29 29 29 28
31 32 32 33 33 34 34 34 35 35 35 35 35 35 35 35 35 34 33 31 30 28 27 27 27 27 27 27 26 26 26 26 27 27 27 27 26 25 25 24 24 24 24 23 22 22 21 20 20 20 20 21 22 23 24 25 25 25 25 26 27 28 29 30 30 29 28 28 27
31 32 32 33 33 33 34 35 35 35 35 35 35 36 36 35 35 34 33 32 30 29 28 27 27 27 27 27 27 27 27 28 28 28 28 28 27 26 25 25 24 24 23 23 22 21 21 20 20 20 20 21 22 23 25 25 25 25 25 25 27 28 29 29 29 28 27 25 24
31 32 32 32 33 33 34 34 34 34 35 35 36 36 36 35 35 34 33 32 31 29 29 28 28 28 28 27 28 28 28 28 29 29 29 28 27 26 26 25 24 24 23 22 22 21 20 19 20 20 20 21 22 23 24 25 25 25 25 26 26 27 27 26 25 24 23 23 24
32 32 32 32 33 33 34 34 34 35 35 35 35 35 35 35 35 34 34 33 31 30 30 29 29 29 29 29 29 29 29 29 30 30 29 29 28 27 26 25 24 24 23 22 21 20 19 19 19 20 20 21 21 22 23 24 24 24 24 25 25 24 23 22 21 21 22 23 25
32 32 32 33 33 33 34 34 35 35 35 34 35 35 35 35 35 34 34 33 32 31 31 30 30 30 30 30 30 29 30 30 30 30 30 29 29 28 27 25 24 24 23 22 21 20 19 19 20 20 20 20 21 22 23 24 24 24 23 23 23 23 22 22 22 23 23 24 26
32 32 33 33 33 34 34 34 34 34 34 33 34 34 34 34 35 35 34 34 33 31 30 30 31 31 31 30 30 30 30 31 31 31 30 30 29 28 27 25 24 23 23 22 21 20 20 19 20 20 20 20 20 21 22 23 23 22 22 22 23 23 23 24 24 24 24 25 25
32 32 33 33 33 33 33 33 33 33 33 33 33 34 35 35 35 35 35 34 33 32 31 31 32 31 31 31 30 30 31 31 31 31 31 30 29 28 26 25 24 23 22 22 21 20 20 19 19 20 20 20 20 21 22 22 22 23 23 23 23 24 24 24 24 24 24 25 25
31 32 33 33 33 33 33 32 32 32 33 33 34 34 35 35 35 35 35 34 33 33 33 33 32 32 31 31 31 31 31 32 32 31 31 30 29 27 26 25 24 23 22 22 21 20 19 19 19 19 19 20 20 21 22 22 22 23 23 23 24 24 24 24 24 24 24 24 25
32 32 32 33 32 32 32 32 32 32 33 33 34 34 34 34 34 34 34 34 34 34 34 34 33 33 32 31 31 31 31 31 31 31 30 29 28 27 26 26 25 23 22 22 21 20 19 19 19 19 19 19 20 20 21 21 22 22 23 23 24 24 24 23 23 23 23 24 24
32 32 32 32 32 32 32 32 32 33 33 33 33 34 34 34 35 35 36 36 35 35 34 34 33 32 31 30 30 30 31 31 31 31 30 29 28 27 26 26 25 23 22 21 20 19 18 18 18 18 18 18 19 19 20 20 21 22 23 23 23 23 23 23 23 23 23 23 23
32 32 32 32 32 32 32 32 33 33 33 33 33 34 34 35 36 37 37 36 35 34 33 33 32 31 30 30 30 30 31 31 31 30 29 28 27 27 26 26 25 23 22 21 20 19 18 18 18 18 18 18 18 19 20 20 21 22 22 22 22 22 23 22 22 22 22 22 22
33 33 33 33 32 33 33 33 33 33 33 34 34 35 35 36 36 37 37 35 34 33 32 32 31 30 30 30 30 31 31 31 30 30 29 28 27 27 26 26 24 23 22 21 20 19 18 18 17 17 17 17 18 19 19 20 21 21 21 21 22 22 22 22 22 22 22 22 21
33 34 34 34 33 33 34 34 34 34 35 35 36 36 37 37 37 37 36 35 33 32 32 31 31 31 31 31 31 31 30 30 29 29 29 28 28 27 26 25 24 23 21 20 20 19 18 17 17 17 16 17 17 18 19 19 20 20 20 20 21 22 22 22 22 23 22 21 20
34 34 35 35 35 34 34 34 35 36 36 36 36 36 37 37 37 37 36 35 34 33 32 32 32 32 32 31 30 30 30 30 29 29 28 28 28 27 26 25 24 22 21 20 20 19 18 17 17 16 16 16 17 18 18 18 19 19 19 19 20 21 22 22 23 23 22 21 19
34 35 35 35 35 35 34 35 36 36 37 36 36 36 36 37 36 36 35 34 33 33 33 32 32 32 31 29 28 28 29 30 29 29 28 28 27 25 25 24 24 22 21 20 20 19 18 16 16 16 16 16 17 17 18 18 18 18 19 19 19 20 22 23 23 23 23 21 18
33 34 35 35 35 35 34 35 35 36 36 36 36 36 36 36 35 34 33 32 32 32 31 31 31 31 29 28 27 26 27 28 29 29 28 27 26 25 24 24 23 22 21 20 20 19 17 16 16 16 16 16 16 17 17 18 18 18 19 20 20 21 22 23 24 24 23 20 17
Wind_Direction
221 221 221 222 223 224 225 226 227 227 228 228 228 229 229 229 229 229 231 231 231 232 233 234 235 236 236 236 236 236 236 237 237 237 237 237 238 238 239 239 240 241 243 245 248 251 254 256 259 262 265 268 271 274 276 279 280 282 282 281 280 280 280 280 281 281 282 283 283
221 221 222 222 223 224 225 226 226 227 228 229 230 231 231 231 231 231 232 233 234 234 235 235 236 236 236 236 236 236 236 236 236 236 236 237 237 238 239 239 240 242 243 246 248 251 254 257 260 262 265 268 270 273 275 278 280 281 281 280 280 280 280 280 280 281 283 283 284
220 221 221 221 222 223 223 224 225 226 227 229 231 232 233 233 233 233 234 235 235 236 235 236 236 236 236 236 235 235 235 234 234 235 235 236 237 238 239 240 241 242 244 246 249 252 254 257 260 262 265 267 270 273 276 278 280 281 280 281 281 281 280 280 281 282 283 283 283
220 220 221 221 221 222 223 224 225 227 228 229 230 231 232 233 233 234 235 236 236 235 235 236 236 236 236 235 234 233 233 233 233 234 235 236 237 238 239 240 242 243 245 247 249 252 255 257 259 262 264 267 270 273 276 278 280 280 280 280 281 280 280 280 281 282 282 282 282
220 221 221 221 222 223 224 226 226 227 228 229 230 230 231 232 232 233 234 234 235 235 235 235 235 235 235 234 233 232 232 232 233 234 235 236 237 238 240 241 243 244 246 248 250 252 255 257 259 261 264 267 270 273 275 278 279 279 279 280 280 279 280 281 281 282 282 282 281
221 221 222 222 223 223 224 226 227 228 229 229 229 229 229 230 231 231 232 232 234 234 234 233 233 233 233 233 232 232 232 232 233 234 235 236 237 239 240 242 244 245 247 248 250 252 254 256 259 261 265 268 270 273 275 277 278 278 279 279 279 279 280 281 282 282 282 282 282
222 221 221 222 222 223 223 225 226 227 228 229 228 229 229 230 231 231 231 232 233 232 231 230 230 231 231 231 231 231 231 232 233 234 236 237 239 240 242 243 245 246 247 249 250 252 254 256 259 262 265 268 271 273 276 277 278 278 279 279 280 280 281 281 282 282 283 282 282
223 222 222 222 222 223 223 224 225 226 226 227 228 229 231 232 232 232 232 231 231 231 230 229 229 229 230 230 230 231 232 233 234 235 237 239 241 242 244 245 246 247 247 248 249 251 254 256 260 263 266 269 271 273 276 277 278 279 279 280 280 280 281 281 282 282 282 283 283
222 223 223 223 223 223 223 224 225 225 226 227 229 230 231 232 232 231 231 230 230 230 230 229 229 229 230 230 231 232 233 234 236 237 239 241 243 244 245 246 246 247 247 248 249 252 254 257 261 264 267 269 271 274 276 277 278 278 278 279 279 280 280 280 281 282 282 283 283
221 222 222 222 222 223 223 224 225 225 226 227 229 230 231 231 231 230 230 230 230 229 229 229 229 229 229 230 231 232 234 236 237 239 241 242 244 245 246 246 246 247 247 248 250 252 255 259 262 265 267 269 271 273 275 276 276 277 277 278 278 279 280 280 281 281 281 282 283
221 222 222 221 222 222 222 222 224 225 226 227 228 229 229 229 229 229 229 229 228 228 228 229 228 228 228 230 231 233 235 237 239 241 242 244 245 246 246 246 246 247 248 249 251 253 257 260 263 266 268 270 271 273 274 274 275 275 276 277 278 279 280 280 280 280 281 282 283
221 222 222 222 222 222 221 222 222 224 224 225 226 227 228 228 228 228 228 227 226 227 228 228 228 228 229 230 231 233 236 238 240 241 243 244 245 245 245 246 246 247 248 250 252 255 258 261 264 266 269 270 271 272 273 274 275 276 277 277 278 279 279 280 280 280 281 282 284
221 221 222 222 222 221 221 221 222 222 223 224 225 226 227 227 227 227 226 225 225 226 227 227 227 228 228 230 232 234 236 238 240 242 243 245 245 245 245 245 246 247 249 252 254 257 259 262 265 267 269 271 271 272 273 275 276 276 277 278 278 278 279 280 281 281 282 283 284
220 221 221 221 221 220 220 220 221 222 222 223 224 225 226 226 225 225 225 224 224 225 225 226 226 227 228 230 232 234 237 238 240 242 243 245 244 244 244 245 246 248 250 253 256 258 260 263 265 267 269 271 272 273 274 275 276 276 277 278 278 279 279 280 281 282 283 284 285
220 220 221 221 220 220 220 220 220 221 222 222 223 224 225 224 224 224 223 223 223 224 224 225 225 226 227 229 232 234 237 239 240 242 243 244 244 244 244 245 247 249 252 255 257 259 262 264 266 268 270 271 273 274 275 275 276 276 277 278 278 279 280 281 282 283 284 285 286
219 219 220 220 219 220 220 220 220 221 221 222 223 223 223 222 222 222 222 221 222 222 223 224 225 225 226 228 231 234 236 238 239 241 242 243 243 244 245 246 248 250 253 256 259 261 263 265 267 268 270 271 273 274 275 276 276 276 277 277 278 279 280 281 282 283 284 286 286
219 219 219 219 219 219 220 220 220 220 220 221 222 222 221 221 221 221 220 220 220 221 222 223 224 224 225 227 230 233 235 236 238 240 241 242 243 244 246 248 250 252 255 258 260 263 265 266 268 269 270 272 273 274 275 275 276 276 277 277 278 279 280 281 282 283 285 286 286
218 218 218 218 219 220 220 220 220 220 220 220 221 221 221 221 220 220 220 220 220 220 221 222 223 223 225 227 230 232 234 236 238 240 242 243 244 246 248 250 252 255 257 259 262 264 266 267 269 270 270 271 272 273 274 275 276 276 277 278 278 279 280 281 282 284 285 286 288
218 218 218 218 219 220 221 221 220 220 220 220 220 220 220 220 220 219 219 219 220 221 221 222 222 223 225 228 230 232 234 236 238 240 242 244 246 247 249 251 253 256 258 260 263 265 267 268 269 269 270 270 271 272 273 274 275 276 277 278 279 280 281 282 284 286 288 290 291
218 218 219 219 220 220 221 221 221 220 220 220 220 219 219 220 220 219 219 219 220 221 221 221 221 222 225 228 231 233 235 236 239 241 243 244 246 247 249 252 254 257 259 261 263 265 266 267 268 268 269 269 270 271 272 273 274 276 277 279 280 281 283 285 288 290 293 294 294
220 220 220 220 220 220 221 221 221 220 220 219 219 219 220 220 220 220 219 220 220 220 221 220 221 222 225 228 231 233 235 237 239 241 243 244 246 247 250 252 255 257 259 261 263 264 265 266 266 267 267 268 269 269 271 273 274 276 278 280 282 284 287 289 291 293 295 296 296
221 221 221 221 221 221 221 221 221 220 219 219 219 219 219 220 220 220 220 220 220 220 220 220 221 223 226 229 231 233 235 237 239 241 243 245 246 248 250 252 255 257 259 261 262 263 264 264 265 265 266 266 267 269 270 273 275 278 281 283 285 288 290 292 293 294 296 297 298
223 222 222 221 222 222 221 221 220 219 218 218 218 218 219 219 220 220 220 219 219 220 220 220 221 224 227 230 232 234 235 237 239 241 243 245 246 248 250 252 254 257 259 260 261 262 262 263 263 263 264 265 266 268 271 273 277 280 283 286 288 290 292 293 294 295 296 298 299
223 222 222 222 221 221 221 220 219 218 217 217 217 217 217 218 218 218 218 218 218 219 219 219 221 224 227 230 232 234 235 236 238 240 242 244 245 247 249 251 254 256 258 259 260 260 261 262 263 264 265 266 267 270 273 277 280 282 284 286 288 290 292 293 294 295 296 298 299
223 223 222 221 220 220 219 218 218 217 216 216 216 216 216 216 217 217 217 217 218 218 218 219 221 224 227 229 232 233 235 237 238 240 242 243 245 246 248 251 253 256 257 258 259 259 259 261 263 266 269 271 274 277 280 282 283 283 284 285 287 289 290 292 293 294 295 297 297
223 222 221 221 220 219 218 217 217 216 216 215 215 214 214 215 215 216 216 217 217 217 217 218 220 223 226 228 230 232 234 236 238 240 241 243 244 246 248 250 253 255 256 257 257 257 257 258 258 261 266 271 275 278 280 281 281 282 283 284 285 286 286 287 288 291 293 293 293
222 221 220 220 219 218 217 217 216 215 214 213 213 213 213 214 214 214 215 216 217 217 217 218 220 223 225 227 229 231 234 236 238 240 241 243 244 246 248 250 253 254 256 256 256 256 256 256 255 256 259 264 268 270 272 273 276 279 281 282 282 282 281 281 282 284 286 288 291
220 220 219 218 217 216 216 216 214 213 213 212 212 212 212 213 212 213 214 216 216 216 216 218 220 222 224 227 229 231 234 236 238 240 241 243 245 246 249 251 253 254 255 255 255 255 255 255 255 257 259 261 264 267 270 272 275 277 279 279 278 278 277 277 278 280 283 289 294
220 219 217 216 215 215 215 213 213 212 212 212 211 211 211 211 211 212 214 215 215 215 216 217 219 221 223 226 229 231 234 236 238 240 241 243 245 246 248 251 252 253 254 254 254 254 253 254 256 258 260 262 264 268 271 273 275 276 276 276 276 276 276 276 279 284 289 294 297
219 217 215 214 214 213 213 212 212 212 211 210 210 209 209 209 210 211 212 213 214 215 216 217 219 221 223 226 228 231 233 236 238 239 241 242 244 246 248 250 252 253 253 253 253 252 253 254 257 259 261 263 265 268 270 272 273 273 273 274 275 277 280 283 287 291 294 296 297
218 216 214 213 213 212 212 212 211 211 209 208 208 208 208 208 209 210 212 213 214 215 216 218 220 222 224 226 228 231 233 235 237 239 240 242 244 246 249 250 252 252 252 252 252 252 253 255 257 260 262 264 265 267 269 270 272 273 273 275 278 282 286 290 293 294 295 295 296
217 215 213 212 212 212 211 211 210 209 208 207 207 207 208 208 210 211 213 214 215 215 216 218 220 222 224 227 229 231 233 235 237 239 240 242 244 246 249 251 252 252 252 251 251 252 253 255 258 260 262 264 266 268 270 272 273 275 276 278 281 285 288 290 291 293 294 295 296
216 214 212 211 211 211 210 209 208 207 207 207 207 207 208 209 210 212 213 214 214 215 216 217 219 221 223 225 227 230 233 235 237 239 240 242 244 246 249 251 251 251 251 251 251 251 253 255 258 260 263 265 267 270 272 274 275 277 278 280 282 284 285 286 288 290 292 295 297
215 213 212 211 210 210 209 208 207 206 206 206 207 207 208 208 209 210 211 213 215 216 217 219 220 222 224 226 228 230 232 235 237 238 239 241 243 246 249 250 251 250 250 250 250 251 252 255 258 261 264 267 269 272 273 275 276 278 279 281 282 283 283 284 286 289 292 295 297
214 212 211 210 210 208 207 206 206 205 205 205 206 207 207 208 208 210 211 213 215 216 218 220 221 223 225 227 229 231 233 235 236 238 239 240 243 245 248 250 250 250 250 250 250 250 252 255 258 262 265 268 271 272 274 275 277 278 280 282 283 283 283 285 287 289 293 296 298
214 212 210 210 209 208 206 205 205 204 204 205 205 206 207 208 210 212 213 213 214 214 216 218 219 221 223 225 228 231 233 234 236 237 239 240 242 244 247 249 250 249 249 249 249 249 251 255 258 262 266 269 271 273 275 277 278 280 281 282 282 283 284 286 288 291 294 298 299
214 213 211 210 209 208 206 205 204 204 204 205 206 206 207 208 210 212 213 212 211 212 214 215 216 218 220 223 227 230 233 234 235 237 238 240 242 243 246 248 249 249 248 247 247 248 250 254 258 262 265 268 271 273 276 278 279 280 281 282 283 283 285 286 288 291 295 299 299
216 214 212 211 209 208 207 205 205 204 205 206 207 207 208 208 209 210 211 210 209 210 212 214 215 218 221 225 228 230 232 233 234 235 237 239 241 243 246 248 249 248 247 246 246 247 249 253 257 260 264 267 271 274 276 278 279 280 280 281 282 283 284 286 288 292 296 300 298
217 215 213 212 210 209 207 206 206 206 207 207 207 208 208 208 209 209 210 210 210 210 211 213 216 219 223 226 228 230 232 233 234 235 236 239 241 243 246 248 249 249 247 245 245 246 248 252 256 259 262 266 270 273 275 277 278 278 278 279 280 282 284 287 289 293 297 299 296
218 217 215 213 211 210 208 207 208 208 208 208 207 207 207 208 209 209 209 209 210 211 213 215 217 220 223 224 225 228 231 234 235 236 237 239 241 242 245 247 249 248 246 244 244 245 248 251 255 259 262 266 269 272 274 275 275 275 275 276 277 280 284 287 290 293 296 297 292
219 217 215 213 212 211 209 209 209 210 210 209 208 208 209 208 208 208 207 208 209 211 213 215 218 220 221 221 223 226 230 233 236 237 238 238 240 241 242 244 247 248 247 244 244 244 246 250 254 258 262 265 268 270 271 271 270 269 270 273 277 280 284 287 290 293 295 293 288
Height
782 783 784 785 786 787 788 789 791 792 793 794 795 796 797 798 799 800 801 803 804 805 806 807 808 810 811 813 814 816 817 818 818 819 820 820 821 822 822 823 823 824 824 824 824 824 824 824 824 824 824 823 823 823 823 822 822 822 821 821 820 820 820 819 818 818 818 817 817
779 780 781 783 784 785 786 787 788 789 791 791 793 794 795 796 797 798 799 800 801 803 804 805 807 808 810 811 813 814 815 816 816 817 818 818 819 820 821 821 821 822 822 822 823 823 823 823 823 822 822 822 821 821 821 820 821 820 819 819 818 818 818 817 816 816 816 815 815
775 777 778 780 781 782 783 784 785 786 787 789 790 791 792 793 794 796 797 798 799 801 802 804 805 806 808 809 811 812 813 814 814 815 816 816 817 818 819 819 820 820 820 821 821 821 821 821 821 821 820 820 819 819 819 819 819 818 817 817 816 816 816 815 814 814 814 813 813
772 774 775 776 777 778 779 780 781 783 784 786 787 789 790 791 792 794 795 796 798 799 800 801 803 804 806 807 809 810 811 812 812 813 814 815 815 816 817 817 818 818 818 819 819 819 819 819 819 819 818 818 818 817 817 817 817 816 815 815 814 814 814 813 812 812 812 811 811
769 770 771 771 773 774 775 777 779 780 782 784 785 786 787 789 790 791 793 794 796 797 798 800 801 803 804 805 806 808 809 809 810 811 812 813 813 814 815 815 816 816 816 817 817 817 817 817 817 816 816 816 816 815 815 815 815 814 814 813 812 812 812 811 810 810 810 809 809
765 766 767 768 770 771 773 775 776 778 780 781 782 783 784 786 787 789 790 792 793 795 796 798 800 801 802 803 804 806 806 807 808 809 810 811 811 812 813 813 814 814 814 815 815 815 815 815 815 814 814 814 814 813 813 813 813 812 811 811 810 810 810 809 809 808 808 807 806
761 763 764 766 768 769 771 773 775 776 778 779 780 781 782 783 785 786 788 790 791 793 795 796 797 799 800 801 802 803 804 805 806 807 808 809 809 810 811 811 811 812 812 813 813 813 813 813 813 812 812 812 812 811 811 811 811 810 809 809 808 808 808 807 807 806 806 805 804
759 761 762 764 766 767 769 771 772 774 775 776 777 778 779 781 783 784 786 788 789 791 792 794 795 796 797 799 800 801 802 803 804 805 806 806 807 808 808 809 809 810 810 810 811 811 811 811 811 810 810 810 810 809 809 809 809 808 807 806 806 806 806 805 805 804 804 803 802
758 759 760 762 764 765 767 768 770 771 772 773 774 776 777 779 781 783 784 786 787 789 790 792 793 794 796 797 798 799 800 801 802 803 804 804 805 806 806 807 807 807 808 808 809 809 809 809 809 808 808 808 808 807 807 807 807 806 805 804 804 804 803 803 803 802 802 801 800
755 756 758 760 761 763 765 766 768 769 770 771 772 774 776 777 779 781 782 784 785 787 788 789 791 792 794 795 796 797 798 799 800 801 802 802 803 803 804 804 805 805 806 806 807 807 807 807 806 806 806 806 806 806 806 805 805 804 803 803 802 801 801 801 801 800 800 799 798
752 754 755 757 759 761 763 764 766 767 768 769 771 772 774 775 777 778 780 782 783 785 786 787 789 790 791 793 794 795 796 797 798 799 799 800 801 801 801 802 802 803 803 804 804 805 805 805 804 804 804 804 804 804 804 803 803 802 801 801 800 800 799 798 798 798 797 797 796
751 752 753 755 756 759 761 762 763 764 766 767 768 770 771 773 774 776 778 779 781 782 784 785 787 788 789 791 792 793 794 795 796 796 797 798 798 799 799 800 800 801 801 802 802 803 803 802 802 802 802 802 802 802 801 801 801 800 799 798 798 798 797 796 796 796 795 794 794
749 751 752 753 755 756 758 759 760 762 763 764 766 767 769 771 772 774 776 777 778 780 781 783 785 786 787 789 790 791 792 792 793 794 795 795 796 796 797 797 798 798 799 799 800 800 800 800 800 800 800 800 800 799 799 799 799 798 797 796 796 795 794 794 794 793 793 792 791
748 749 750 751 753 754 756 757 758 759 760 761 763 764 766 768 770 771 773 774 776 778 779 781 782 784 785 786 788 789 789 790 791 792 793 793 794 794 795 795 796 796 797 797 798 798 798 798 798 798 798 797 797 797 797 797 796 796 795 794 794 793 792 792 791 791 791 790 789
746 747 748 749 751 752 753 754 755 756 757 759 760 762 764 766 767 769 771 772 774 775 777 779 780 782 783 784 786 786 787 788 789 790 790 791 791 792 792 793 793 794 794 795 795 796 796 796 796 796 796 795 795 795 795 795 794 794 793 792 791 791 790 790 789 789 788 787 786
744 745 746 747 748 749 750 751 752 754 755 756 757 759 761 763 765 766 768 770 772 773 775 776 778 779 781 782 784 784 785 786 787 787 788 788 789 789 790 791 791 792 792 793 793 793 793 794 794 794 794 793 793 793 793 792 792 791 791 790 790 789 788 788 787 787 786 785 784
741 742 743 744 745 746 747 748 749 751 752 753 755 757 759 761 762 764 766 768 769 771 772 774 776 777 779 780 781 782 783 784 784 785 785 786 786 787 788 788 789 789 790 791 791 791 791 791 791 792 792 791 791 791 790 790 790 789 789 788 788 787 786 786 785 784 784 783 782
739 740 741 742 742 743 744 746 747 748 750 751 753 755 756 758 760 762 764 765 767 769 770 772 774 775 777 778 779 779 780 781 782 782 783 784 784 785 786 786 787 787 788 788 789 789 789 789 789 790 790 789 789 789 788 788 787 787 786 786 785 785 784 784 783 782 781 781 779
736 737 738 739 739 741 742 744 745 747 748 750 752 753 755 757 758 760 762 764 765 767 768 770 772 773 774 775 776 777 778 779 779 780 781 781 782 783 783 784 785 785 786 786 786 786 787 787 787 787 787 787 787 787 786 786 785 785 784 784 783 783 782 781 781 780 779 778 777
734 735 735 736 737 739 741 742 744 746 747 749 751 752 754 755 757 758 760 761 763 765 767 768 770 771 772 773 774 775 776 776 777 778 779 779 780 781 781 782 782 783 783 784 784 784 785 785 785 785 785 785 785 785 784 784 783 783 782 782 781 781 780 779 779 778 777 776 775
732 732 734 735 737 739 740 742 744 745 747 748 750 751 752 754 755 757 758 760 762 763 765 766 768 769 769 770 771 772 773 774 775 776 777 777 778 778 779 780 780 781 781 781 782 782 782 783 783 783 783 783 783 783 782 782 781 781 780 780 779 779 778 777 776 776 775 774 773
731 732 733 735 737 738 740 741 743 745 746 747 748 750 751 752 754 755 757 759 760 762 763 764 765 766 767 768 769 770 771 773 773 774 775 775 775 776 777 777 778 778 779 779 779 780 780 781 781 781 781 781 781 781 780 780 780 779 779 778 777 777 776 775 774 773 772 771 770
731 732 734 735 736 738 739 741 742 743 745 746 747 748 749 750 752 753 755 757 758 760 761 762 763 764 765 766 767 768 770 771 771 772 772 773 773 774 774 775 775 776 776 777 777 778 778 779 779 779 779 779 779 779 778 778 778 777 776 776 775 774 774 773 772 771 770 769 768
731 732 733 734 735 736 738 739 740 741 742 744 745 746 747 749 750 752 753 755 756 758 759 760 761 762 763 764 765 766 768 769 769 770 770 771 771 771 772 773 773 773 774 774 775 776 776 777 777 777 777 777 777 777 776 776 776 775 774 774 773 772 771 770 769 769 768 766 766
729 730 731 732 733 734 735 736 738 739 740 741 742 744 745 746 748 749 751 752 754 755 757 758 759 760 761 762 763 764 765 766 767 767 768 768 769 769 770 770 771 771 772 772 773 774 775 775 775 775 775 775 775 774 774 774 773 773 772 771 771 770 769 768 767 766 765 764 764
727 728 729 730 731 732 733 734 735 736 737 739 740 741 743 744 745 747 748 750 752 753 754 756 757 758 759 760 761 762 763 764 764 765 765 766 766 767 768 768 769 769 770 770 771 772 773 774 774 774 774 773 773 772 772 771 770 770 770 769 769 768 767 765 764 764 763 762 762
725 725 726 727 728 729 730 731 732 734 735 736 738 739 740 741 743 744 746 748 749 751 752 754 754 755 756 757 758 759 760 761 762 762 763 763 764 765 765 766 766 767 767 769 769 770 771 772 772 773 773 773 772 771 770 769 769 768 768 768 767 766 765 764 763 762 761 761 760
721 722 723 725 726 726 727 729 730 732 733 734 735 736 738 739 741 742 744 746 747 749 750 751 752 753 754 755 756 757 758 759 759 760 761 761 762 762 763 763 764 765 766 767 768 768 769 770 771 771 771 771 771 770 769 769 768 767 767 766 766 765 764 762 761 761 760 759 759
719 720 721 722 723 724 725 727 728 729 730 731 733 735 736 737 739 740 742 743 745 746 747 748 749 751 751 752 753 754 755 756 757 757 758 759 759 760 760 761 762 763 764 765 766 766 767 768 769 769 769 769 769 768 768 767 766 766 765 764 764 763 762 761 760 759 759 758 757
716 717 718 719 720 721 722 724 725 726 728 730 731 733 734 735 737 738 739 741 742 743 744 746 747 748 748 749 750 752 753 753 754 755 756 756 757 757 758 759 760 761 762 763 764 765 765 766 767 767 767 767 767 767 766 765 764 764 763 762 762 761 761 760 759 758 757 756 755
714 715 716 716 717 719 720 721 723 725 726 728 730 731 732 733 734 735 737 738 739 741 742 743 744 745 745 747 748 749 750 751 752 753 753 754 754 755 756 757 758 759 760 761 762 763 763 764 765 765 765 765 765 765 764 763 763 762 761 761 760 759 759 758 757 757 756 755 754
712 712 713 714 715 716 717 719 721 723 725 726 727 729 730 731 732 733 734 736 737 739 740 741 741 742 743 744 746 747 748 749 749 750 751 751 752 753 754 755 755 756 758 759 760 761 761 762 762 763 763 763 763 763 762 761 761 760 759 759 758 758 757 757 756 755 754 754 753
710 711 711 712 713 714 716 718 719 721 723 724 725 726 727 728 730 731 733 734 735 736 737 737 738 739 740 742 743 744 745 746 747 748 748 749 750 751 752 752 753 754 755 757 758 759 759 760 761 761 761 761 761 760 760 759 759 758 757 757 756 756 756 755 754 754 753 752 751
708 709 709 710 711 713 714 716 717 719 720 721 722 723 725 726 728 729 730 731 732 733 734 734 735 736 738 739 740 742 743 744 745 745 746 747 748 749 749 750 751 752 753 755 756 756 757 758 759 759 759 759 759 758 758 757 756 756 755 755 754 754 754 753 753 752 751 750 749
705 706 707 708 709 711 712 714 715 716 718 719 720 721 722 724 725 726 727 728 729 731 731 732 734 735 736 737 739 740 741 742 742 743 744 745 746 747 747 748 748 750 751 753 754 754 755 756 757 757 757 757 757 756 756 755 754 754 753 753 753 752 752 751 751 750 749 748 747
703 704 705 706 708 709 710 711 712 714 715 716 717 718 719 721 722 723 724 726 727 728 729 730 732 733 734 735 736 737 739 739 740 741 742 743 744 744 745 745 746 748 749 751 752 753 753 754 755 755 755 755 755 754 754 753 753 752 752 751 751 750 750 749 749 748 747 746 745
700 701 703 704 705 706 707 709 710 711 712 713 714 715 716 717 719 720 722 724 725 725 726 728 729 731 732 733 734 735 736 737 738 739 740 741 742 742 743 743 744 746 747 749 750 751 751 752 753 753 753 753 753 752 752 751 751 750 750 749 749 748 748 747 747 746 745 744 744
697 699 700 702 703 704 705 706 707 707 708 709 710 711 713 714 716 718 719 721 722 723 724 725 727 728 729 730 732 733 734 735 736 737 738 739 739 740 741 741 742 744 745 747 748 748 749 750 751 751 751 751 751 750 750 750 749 749 748 747 747 746 746 745 745 744 743 743 742
694 696 697 699 700 701 702 703 703 703 704 705 707 708 710 712 713 715 716 718 719 720 722 723 724 725 727 729 730 731 732 733 734 735 736 736 737 738 739 740 740 741 743 745 746 746 747 748 749 749 749 749 749 749 748 748 747 747 746 746 745 745 744 743 743 742 741 741 741
691 693 694 696 697 698 699 699 699 700 701 703 704 706 707 709 710 712 714 716 717 719 720 721 722 724 725 727 729 730 731 731 732 733 734 735 735 736 737 738 738 739 741 742 744 744 745 746 747 747 747 747 747 747 747 746 746 745 745 744 744 743 742 741 741 740 740 739 739
689 690 692 693 694 695 696 696 697 698 699 701 702 704 705 707 709 711 713 714 716 717 718 719 721 722 724 726 727 728 729 729 730 731 732 733 734 735 736 736 736 737 739 740 741 742 743 744 744 745 745 746 745 745 745 745 744 743 743 742 742 742 741 740 739 739 738 738 737